TimeCDT,TemperatureF,Dew PointF,Humidity,Sea Level PressureIn,VisibilityMPH,Wind Direction,Wind SpeedMPH,Gust SpeedMPH,PrecipitationIn,Events,Conditions,WindDirDegrees,DateUTC
12:13 AM,53.6,51.8,94,29.74,7.0,NW,12.7,17.3,0.01,Rain-Thunderstorm,Thunderstorms and Rain,320,2013-04-10 05:13:00
12:35 AM,53.6,50.0,88,29.78,5.0,WNW,11.5,17.3,0.06,Rain-Thunderstorm,Thunderstorms and Rain,300,2013-04-10 05:35:00
12:54 AM,50.0,46.0,86,29.84,10.0,West,16.1,29.9,0.06,Rain-Thunderstorm,Light Rain,280,2013-04-10 05:54:00
1:03 AM,48.2,46.4,93,29.84,6.0,WNW,19.6,27.6,0.02,Rain-Thunderstorm,Thunderstorms and Rain,300,2013-04-10 06:03:00
1:24 AM,46.4,42.8,87,29.85,6.0,NW,20.7,34.5,0.04,Rain,Light Rain,320,2013-04-10 06:24:00
1:36 AM,46.4,42.8,87,29.86,10.0,WNW,5.8,17.3,0.04,Rain-Thunderstorm,Light Rain,300,2013-04-10 06:36:00
1:54 AM,46.0,42.1,86,29.84,2.5,North,4.6,-,0.17,Rain-Thunderstorm,Heavy Thunderstorms and Rain,10,2013-04-10 06:54:00
2:03 AM,46.4,42.8,87,29.85,6.0,NNE,3.5,-,0.01,Rain-Thunderstorm,Light Thunderstorms and Rain,30,2013-04-10 07:03:00
2:43 AM,48.2,44.6,87,29.76,10.0,NNE,5.8,-,0.01,Rain,Light Rain,30,2013-04-10 07:43:00
2:54 AM,48.9,46.0,90,29.74,10.0,ENE,6.9,-,0.01,,Overcast,70,2013-04-10 07:54:00
3:11 AM,50.0,46.4,87,29.75,10.0,ENE,8.1,-,N/A,,Mostly Cloudy,60,2013-04-10 08:11:00
3:28 AM,50.0,46.4,87,29.74,10.0,NE,5.8,-,N/A,,Overcast,50,2013-04-10 08:28:00
3:49 AM,50.0,46.4,87,29.74,10.0,East,3.5,-,N/A,Thunderstorm,Overcast,80,2013-04-10 08:49:00
3:54 AM,50.0,48.0,93,29.76,9.0,Calm,Calm,-,0.00,Rain-Thunderstorm,Light Rain,0,2013-04-10 08:54:00
4:14 AM,50.0,46.4,87,29.77,7.0,WNW,4.6,-,0.02,Rain-Thunderstorm,Light Rain,300,2013-04-10 09:14:00
4:49 AM,46.4,44.6,93,29.75,2.5,NNE,12.7,-,0.13,Rain-Thunderstorm,Heavy Thunderstorms and Rain,20,2013-04-10 09:49:00
4:54 AM,48.0,45.0,89,29.83,3.0,Variable,6.9,17.3,0.14,Rain-Thunderstorm,Thunderstorms and Rain,0,2013-04-10 09:54:00
5:04 AM,48.2,44.6,87,29.83,7.0,West,11.5,-,0.01,Rain-Thunderstorm,Light Thunderstorms and Rain,260,2013-04-10 10:04:00
5:24 AM,46.4,44.6,93,29.84,10.0,West,10.4,-,0.01,,Overcast,280,2013-04-10 10:24:00
5:54 AM,46.0,42.1,86,29.85,10.0,WNW,6.9,-,0.01,Rain,Light Rain,290,2013-04-10 10:54:00
6:54 AM,45.0,41.0,86,29.88,10.0,WNW,8.1,-,0.00,,Overcast,290,2013-04-10 11:54:00
7:54 AM,45.0,41.0,86,29.86,10.0,NNW,9.2,-,N/A,,Overcast,330,2013-04-10 12:54:00
8:54 AM,43.0,39.0,86,29.89,10.0,WNW,9.2,-,N/A,,Overcast,300,2013-04-10 13:54:00
9:01 AM,42.8,39.2,87,29.90,10.0,WNW,6.9,-,N/A,,Overcast,300,2013-04-10 14:01:00
9:54 AM,42.1,37.9,85,29.83,7.0,NNW,9.2,-,0.00,Rain,Light Rain,340,2013-04-10 14:54:00
10:33 AM,42.8,39.2,87,29.94,2.0,SW,6.9,-,0.05,Rain,Rain,230,2013-04-10 15:33:00
10:44 AM,42.8,39.2,87,29.90,4.0,NW,6.9,-,0.08,Rain,Rain,320,2013-04-10 15:44:00
10:54 AM,43.0,39.0,86,29.92,4.0,WNW,6.9,-,0.08,Rain,Light Rain,300,2013-04-10 15:54:00
11:54 AM,42.8,39.2,87,29.89,10.0,WNW,8.1,-,N/A,,Overcast,290,2013-04-10 16:54:00
12:00 PM,42.8,39.2,87,29.87,10.0,NW,8.1,-,0.00,Rain,Light Rain,310,2013-04-10 17:00:00
12:54 PM,44.6,39.2,81,29.86,8.0,WNW,11.5,17.3,N/A,Rain,Light Rain,290,2013-04-10 17:54:00
1:01 PM,42.8,39.2,87,29.85,10.0,WNW,12.7,17.3,0.00,Rain,Light Rain,300,2013-04-10 18:01:00
1:54 PM,45.0,41.0,86,29.83,10.0,NW,9.2,-,0.00,,Overcast,320,2013-04-10 18:54:00
2:54 PM,44.1,39.9,85,29.86,6.0,WNW,12.7,18.4,0.05,Rain,Light Rain,290,2013-04-10 19:54:00
3:32 PM,42.8,37.4,81,29.81,4.0,NW,12.7,21.9,0.05,Rain,Rain,320,2013-04-10 20:32:00
3:54 PM,42.1,39.0,89,29.79,8.0,North,11.5,17.3,0.08,Rain,Light Rain,350,2013-04-10 20:54:00
4:54 PM,44.1,39.9,85,29.75,10.0,North,4.6,-,0.00,Rain,Light Rain,360,2013-04-10 21:54:00
5:54 PM,44.1,39.9,85,29.79,10.0,WNW,5.8,-,0.01,Rain,Light Rain,300,2013-04-10 22:54:00
6:54 PM,43.0,39.9,89,29.76,4.0,NW,10.4,-,0.00,,Overcast,310,2013-04-10 23:54:00
7:38 PM,44.6,41.0,87,29.78,7.0,West,8.1,-,N/A,,Overcast,280,2013-04-11 00:38:00
7:54 PM,44.1,41.0,89,29.80,2.5,West,9.2,-,N/A,,Overcast,280,2013-04-11 00:54:00
8:09 PM,42.8,41.0,93,29.79,3.0,WNW,8.1,-,0.00,Rain,Light Rain,300,2013-04-11 01:09:00
8:54 PM,43.0,39.9,89,29.80,10.0,NW,8.1,16.1,0.00,,Overcast,310,2013-04-11 01:54:00
9:06 PM,42.8,39.2,87,29.79,10.0,WNW,10.4,-,0.00,Rain,Light Rain,290,2013-04-11 02:06:00
9:13 PM,42.8,39.2,87,29.79,10.0,NW,10.4,-,0.00,Rain,Light Rain,320,2013-04-11 02:13:00
9:25 PM,42.8,39.2,87,29.80,8.0,WNW,6.9,-,0.00,Rain,Light Rain,300,2013-04-11 02:25:00
9:54 PM,42.1,39.0,89,29.80,10.0,WNW,6.9,-,0.01,Rain,Light Rain,290,2013-04-11 02:54:00
10:15 PM,42.8,37.4,81,29.79,10.0,NW,5.8,-,0.00,,Overcast,310,2013-04-11 03:15:00
10:50 PM,42.8,37.4,81,29.80,10.0,West,8.1,-,0.00,,Overcast,280,2013-04-11 03:50:00
10:54 PM,42.1,37.9,85,29.81,10.0,WNW,8.1,-,0.00,,Overcast,290,2013-04-11 03:54:00
11:16 PM,41.0,37.4,87,29.80,4.0,West,9.2,-,N/A,,Overcast,270,2013-04-11 04:16:00
11:54 PM,39.9,37.9,93,29.80,7.0,West,9.2,-,N/A,,Overcast,270,2013-04-11 04:54:00